[[{"header":{"parameterUnit":"m.s-1","parameterCategory":1,"la1":30.2991,"la2":30.254,"lo1":-89.0895,"lo2":-89.0444,"dy":0.0017,"dx":0.0017,"nx":28,"ny":28,"refTime":"2023-09-14T09:00:00:Z","depth":0,"parameterNumber":2,"parameterNumberName":"U-component_of_WINDS"},"data":[0,0,0,0,0,0,0,0,0,0,0,0,0,0,0,0,0,0,0,0,0,0,0,0,0,0,0,0,0,0,0,0,0,0,0,0,0,0,0,0,0,0,0,0,0,0,0,0,0,0,0,0,0,0,0,0,0,0,-1.4141,-1.414,0,-1.411,-1.4109,-1.4109,-1.4095,-1.4095,-1.4095,-1.4095,-1.4064,-1.4063,-1.4062,0,0,0,0,0,0,0,0,0,0,0,0,0,-1.4187,-1.4186,-1.4141,-1.414,-1.414,-1.411,-1.4109,-1.4109,-1.4095,-1.4095,-1.4095,-1.4095,-1.4064,-1.4063,-1.4062,0,0,0,0,0,0,0,0,0,0,0,0,0,-1.4162,-1.4185,-1.4141,-1.4129,-1.4128,-1.411,-1.4109,-1.4109,-1.4095,-1.4095,-1.4095,-1.4095,-1.4065,-1.4063,-1.4062,-1.4053,0,0,-1.4058,-1.4057,0,0,0,0,0,0,0,0,-1.4164,-1.4161,-1.4131,-1.413,-1.4129,-1.4106,-1.4114,-1.409,-1.4095,-1.4108,-1.4095,-1.4095,-1.4078,-1.4076,-1.407,-1.4051,-1.405,-1.4058,-1.4057,-1.4056,-1.4056,0,0,0,0,0,0,0,-1.4165,-1.4162,-1.4128,-1.4131,-1.4129,-1.4125,-1.4122,-1.4109,-1.4093,-1.4107,-1.4106,-1.4102,-1.4077,-1.4071,-1.4069,-1.4049,-1.4058,-1.4057,-1.4056,-1.4055,-1.4019,-1.4019,0,0,0,0,0,0,-1.4169,-1.4163,-1.4129,-1.4127,-1.4147,-1.4125,-1.4121,-1.4113,-1.4093,-1.409,-1.4102,-1.4102,-1.4073,-1.407,-1.4068,-1.4054,-1.4056,-1.4055,-1.4054,-1.402,-1.4019,-1.4019,0,0,0,0,0,0,-1.417,-1.4166,-1.4131,-1.4145,-1.414,-1.4124,-1.4116,-1.4113,-1.4106,-1.409,-1.4086,-1.4099,-1.4073,-1.4069,-1.4056,-1.4053,-1.4055,-1.4053,-1.402,-1.402,-1.4019,-1.4027,0,0,0,0,0,0,-1.4171,-1.4167,-1.4163,-1.4145,-1.4139,-1.412,-1.4115,-1.4112,-1.4104,-1.4103,-1.4086,-1.4083,-1.4073,-1.4058,-1.4055,-1.4051,-1.4052,-1.402,-1.402,-1.4019,-1.4027,-1.4027,-1.4027,0,0,0,0,0,-1.4173,-1.4167,-1.4163,-1.4159,-1.4135,-1.412,-1.4116,-1.4105,-1.4104,-1.41,-1.4089,-1.4083,-1.4054,-1.4057,-1.4053,-1.4049,-1.402,-1.402,-1.4019,-1.4027,-1.4027,-1.4027,0,0,0,0,0,0,-1.4186,-1.4165,-1.416,-1.4148,-1.4136,-1.4117,-1.4112,-1.4106,-1.4094,-1.4093,-1.408,-1.4076,-1.4063,-1.4055,-1.4059,-1.4037,-1.4036,-1.4035,-1.4044,-1.4044,-1.4044,-1.4046,-1.4051,0,0,0,0,0,-1.4187,-1.4177,-1.4159,-1.415,-1.4144,-1.4129,-1.4122,-1.4114,-1.4101,-1.4096,-1.4084,-1.4071,-1.4058,-1.4051,-1.4038,-1.4026,-1.4021,-1.4021,-1.4021,-1.4021,-1.402,-1.4011,-1.401,-1.4018,-1.4018,-1.4018,0,0,-1.419,-1.4177,-1.4172,-1.4152,-1.4142,-1.413,-1.4125,-1.4114,-1.4105,-1.4094,-1.408,-1.4071,-1.4055,-1.4042,-1.4035,-1.4034,-1.4017,-1.4021,-1.4021,-1.402,-1.4011,-1.401,-1.4009,-1.4018,-1.4018,-1.4018,0,0,-1.419,-1.4179,-1.417,-1.4159,-1.4143,-1.4133,-1.4131,-1.4113,-1.4106,-1.4092,-1.4083,-1.4072,-1.4052,-1.404,-1.4032,-1.4025,-1.4019,-1.4021,-1.4022,-1.4013,-1.4013,-1.4012,-1.4008,-1.4007,-1.4021,-1.4021,-1.4021,0,-1.4195,-1.4178,-1.4166,-1.4155,-1.4146,-1.4135,-1.4125,-1.4115,-1.4096,-1.4089,-1.4089,-1.4061,-1.405,-1.4033,-1.4031,-1.4025,-1.4021,-1.4023,-1.4014,-1.4013,-1.4012,-1.4008,-1.4007,-1.4021,-1.4021,-1.4021,-1.4021,0,-1.4185,-1.4174,-1.4168,-1.4149,-1.4139,-1.4129,-1.4114,-1.4106,-1.4099,-1.4088,-1.4073,-1.4059,-1.4043,-1.4039,-1.4032,-1.402,-1.4019,-1.4016,-1.4015,-1.4012,-1.4008,-1.4006,-1.4021,-1.4021,-1.4021,-1.4021,0,0,-1.4193,-1.4166,-1.4164,-1.4154,-1.4135,-1.4125,-1.4114,-1.4097,-1.409,-1.4077,-1.4066,-1.4047,-1.4044,-1.4034,-1.4026,-1.4018,-1.4012,-1.4016,-1.4015,-1.4014,-1.3996,-1.3998,-1.3996,-1.4008,-1.4007,-1.4007,-1.3997,0,-1.4189,-1.4167,-1.4155,-1.4138,-1.4126,-1.4115,-1.4104,-1.4091,-1.408,-1.4068,-1.4057,-1.4044,-1.4041,-1.4035,-1.4027,-1.4014,-1.4008,-1.4015,-1.3996,-1.3996,-1.4,-1.3994,-1.3997,-1.3988,-1.3995,-1.3995,-1.3995,0,-1.4181,-1.4167,-1.4149,-1.4129,-1.4124,-1.4115,-1.4098,-1.4087,-1.4071,-1.4063,-1.4052,-1.4043,-1.4029,-1.4029,-1.4009,-1.4014,-1.4006,-1.3998,-1.3997,-1.3995,-1.3995,-1.399,-1.3985,-1.3983,-1.3992,-1.3993,-1.3993,0,-1.4187,-1.4164,-1.4149,-1.4142,-1.4119,-1.4112,-1.4102,-1.4086,-1.4076,-1.4061,-1.4055,-1.4039,-1.403,-1.4017,-1.4004,-1.4005,-1.3985,-1.3984,-1.3977,-1.3978,-1.3973,-1.3974,-1.3965,-1.397,-1.397,-1.397,-1.397,0,-1.4183,-1.4172,-1.4151,-1.4142,-1.4129,-1.4115,-1.4102,-1.4091,-1.4077,-1.4065,-1.4054,-1.4043,-1.4026,-1.4013,-1.4003,-1.3987,-1.3983,-1.3976,-1.3973,-1.3977,-1.3977,-1.397,-1.397,-1.3969,-1.3969,-1.3969,-1.3969,0,-1.4187,-1.4173,-1.4156,-1.4135,-1.413,-1.4121,-1.4102,-1.4093,-1.4081,-1.4066,-1.4062,-1.4044,-1.4027,-1.4013,-1.3991,-1.3984,-1.3967,-1.3964,-1.3973,-1.3971,-1.3965,-1.3965,-1.3951,-1.3948,-1.3955,-1.3955,-1.3955,0,-1.4186,-1.4177,-1.4154,-1.4145,-1.4135,-1.4121,-1.4111,-1.4096,-1.4086,-1.4065,-1.4058,-1.4041,-1.4026,-1.4,-1.3984,-1.3967,-1.3963,-1.3959,-1.3961,-1.3964,-1.3962,-1.3962,-1.396,-1.3959,-1.3959,-1.3959,-1.3959,0,-1.4184,-1.4176,-1.4162,-1.4145,-1.4132,-1.4118,-1.4104,-1.4097,-1.4079,-1.4068,-1.405,-1.4039,-1.4016,-1.3998,-1.3979,-1.3968,-1.396,-1.3959,-1.3956,-1.3959,-1.3964,-1.396,-1.3971,-1.3959,-1.3959,-1.3959,-1.3959,-1.3959,-1.4184,-1.4175,-1.4157,-1.4141,-1.4128,-1.4114,-1.4103,-1.409,-1.4075,-1.4055,-1.4047,-1.4029,-1.4011,-1.3984,-1.3973,-1.3958,-1.3957,-1.3954,-1.3953,-1.3952,-1.3952,-1.3967,-1.3955,-1.3955,-1.3955,-1.3955,-1.3955,0,-1.418,-1.4168,-1.4153,-1.4132,-1.4119,-1.4112,-1.4095,-1.4085,-1.4069,-1.4053,-1.4038,-1.4017,-1.3999,-1.3982,-1.3963,-1.3954,-1.395,-1.395,-1.395,-1.3947,-1.3955,-1.3958,-1.3953,-1.3953,-1.3953,-1.3953,-1.3953,-1.3953,-1.4177,-1.416,-1.415,-1.4127,-1.4114,-1.4096,-1.4087,-1.4073,-1.406,-1.4037,-1.4022,-1.4011,-1.3994,-1.3973,-1.3956,-1.3952,-1.3945,-1.3945,-1.3939,-1.3947,-1.3947,-1.3947,-1.395,-1.3944,-1.3944,-1.3933,-1.3933,-1.3932]},{"header":{"parameterUnit":"m.s-1","parameterCategory":1,"la1":30.2991,"la2":30.254,"lo1":-89.0895,"lo2":-89.0444,"dy":0.0017,"dx":0.0017,"nx":28,"ny":28,"refTime":"2023-09-14T09:00:00:Z","depth":0,"parameterNumber":3,"parameterNumberName":"V-component_of_WINDS"},"data":[0,0,0,0,0,0,0,0,0,0,0,0,0,0,0,0,0,0,0,0,0,0,0,0,0,0,0,0,0,0,0,0,0,0,0,0,0,0,0,0,0,0,0,0,0,0,0,0,0,0,0,0,0,0,0,0,0,0,-1.9945,-1.9947,0,-2.0074,-2.0075,-2.0077,-2.0167,-2.0167,-2.0168,-2.0169,-2.0294,-2.0297,-2.0299,0,0,0,0,0,0,0,0,0,0,0,0,0,-1.977,-1.9773,-1.9945,-1.9947,-1.9948,-2.0074,-2.0075,-2.0077,-2.0166,-2.0167,-2.0168,-2.0169,-2.0293,-2.0296,-2.03,0,0,0,0,0,0,0,0,0,0,0,0,0,-1.9867,-1.9774,-1.9945,-2.0008,-2.0015,-2.0073,-2.0076,-2.0078,-2.0166,-2.0167,-2.0168,-2.0169,-2.0292,-2.0296,-2.03,-2.0304,0,0,-2.0312,-2.0314,0,0,0,0,0,0,0,0,-1.9861,-1.9873,-1.9997,-2.0004,-2.0012,-2.0106,-2.006,-2.0153,-2.0166,-2.0109,-2.0169,-2.017,-2.023,-2.0239,-2.0261,-2.031,-2.0315,-2.0313,-2.0315,-2.0317,-2.0318,0,0,0,0,0,0,0,-1.9855,-1.9868,-1.9996,-1.9999,-2.0008,-2.0028,-2.0043,-2.0078,-2.0162,-2.0114,-2.0121,-2.0135,-2.0234,-2.0257,-2.0264,-2.0317,-2.0313,-2.0316,-2.0319,-2.032,-2.0373,-2.0372,0,0,0,0,0,0,-1.9839,-1.9862,-1.9992,-2.0,-1.9938,-2.003,-2.0047,-2.0074,-2.0162,-2.0176,-2.0134,-2.0139,-2.0249,-2.026,-2.0269,-2.0278,-2.0317,-2.0321,-2.0323,-2.0374,-2.0373,-2.0372,0,0,0,0,0,0,-1.9835,-1.985,-1.9987,-1.9933,-1.9952,-2.0032,-2.0062,-2.0076,-2.0099,-2.0177,-2.0192,-2.0142,-2.0251,-2.0264,-2.0295,-2.0284,-2.0322,-2.0326,-2.0376,-2.0374,-2.0373,-2.0296,0,0,0,0,0,0,-1.9829,-1.9848,-1.9851,-1.9932,-1.9954,-2.0011,-2.0061,-2.0078,-2.0106,-2.0114,-2.0188,-2.0202,-2.0252,-2.0288,-2.0299,-2.029,-2.0329,-2.0377,-2.0375,-2.0373,-2.03,-2.0292,-2.0286,0,0,0,0,0,-1.9823,-1.9823,-1.9851,-1.9866,-1.9961,-2.0011,-2.0023,-2.0083,-2.0105,-2.0108,-2.0158,-2.0199,-2.0284,-2.0291,-2.0303,-2.0295,-2.0378,-2.0375,-2.0373,-2.0303,-2.0294,-2.0286,0,0,0,0,0,0,-1.9736,-1.9835,-1.9867,-1.9894,-1.9944,-2.0026,-2.0032,-2.0072,-2.0114,-2.0119,-2.019,-2.0206,-2.0229,-2.0266,-2.0272,-2.0303,-2.0336,-2.0336,-2.0278,-2.027,-2.0263,-2.0252,-2.0333,0,0,0,0,0,-1.9721,-1.9755,-1.9839,-1.9855,-1.9878,-1.995,-1.9974,-2.0017,-2.007,-2.009,-2.0143,-2.0191,-2.0229,-2.0251,-2.029,-2.0306,-2.0323,-2.0307,-2.03,-2.0294,-2.0292,-2.0302,-2.0295,-2.0365,-2.0365,-2.0365,0,0,-1.9688,-1.9747,-1.9763,-1.9839,-1.9882,-1.9914,-1.9967,-1.9999,-2.0022,-2.0095,-2.0127,-2.0167,-2.0226,-2.0249,-2.0262,-2.028,-2.0277,-2.0291,-2.0285,-2.0287,-2.0299,-2.0292,-2.0286,-2.0363,-2.0363,-2.0364,0,0,-1.9645,-1.9693,-1.9712,-1.9754,-1.982,-1.9868,-1.9872,-1.9949,-1.9979,-2.0014,-2.0068,-2.0096,-2.016,-2.0199,-2.0227,-2.0199,-2.0237,-2.0209,-2.0171,-2.0179,-2.0174,-2.0169,-2.0157,-2.0152,-2.0208,-2.0208,-2.0208,0,-1.9595,-1.9648,-1.9715,-1.9744,-1.9774,-1.9844,-1.9861,-1.9899,-1.9973,-1.9991,-2.0011,-2.0092,-2.0136,-2.0169,-2.0162,-2.0183,-2.0188,-2.02,-2.017,-2.0166,-2.0162,-2.0151,-2.0147,-2.0204,-2.0204,-2.0205,-2.0205,0,-1.9583,-1.9618,-1.9624,-1.9696,-1.9727,-1.975,-1.9819,-1.9842,-1.9882,-1.9927,-1.996,-2.0017,-2.0067,-2.0079,-2.0117,-2.0116,-2.0125,-2.0157,-2.019,-2.0151,-2.0141,-2.0138,-2.0198,-2.02,-2.0201,-2.0202,0,0,-1.9487,-1.9597,-1.9598,-1.9631,-1.9709,-1.9736,-1.9761,-1.9813,-1.9831,-1.9879,-1.99,-1.9953,-1.9982,-2.0014,-2.0057,-2.0065,-2.0037,-2.0096,-2.0098,-2.0081,-2.0037,-2.0011,-2.0006,-2.0064,-2.0063,-2.0063,-2.0031,0,-1.9454,-1.9505,-1.9566,-1.9595,-1.9627,-1.9694,-1.9716,-1.9764,-1.9807,-1.9839,-1.9886,-1.9922,-1.9959,-1.9978,-1.9989,-2.0038,-2.0029,-2.0041,-2.0081,-2.0082,-2.0063,-2.0002,-1.9975,-1.9942,-2.0029,-2.0028,-2.0028,0,-1.9422,-1.9469,-1.9501,-1.9576,-1.9592,-1.961,-1.9662,-1.9693,-1.9749,-1.978,-1.9815,-1.9863,-1.989,-1.9922,-1.9959,-1.9967,-1.9987,-2.0013,-2.0013,-2.0017,-2.0051,-2.0002,-1.9934,-1.9928,-2.0023,-2.0024,-2.0024,0,-1.9346,-1.9418,-1.9446,-1.9473,-1.9561,-1.9572,-1.9609,-1.9667,-1.9694,-1.9739,-1.9756,-1.9803,-1.9828,-1.9862,-1.992,-1.9938,-1.995,-1.9987,-1.9974,-1.9972,-1.9972,-1.997,-1.9903,-1.9988,-1.9988,-1.9988,-1.9988,0,-1.9301,-1.9318,-1.9413,-1.943,-1.945,-1.9521,-1.9538,-1.9581,-1.9631,-1.9656,-1.9717,-1.9738,-1.9815,-1.9844,-1.989,-1.9913,-1.9924,-1.9947,-1.9959,-1.9941,-1.9937,-1.9953,-1.9956,-1.9987,-1.9987,-1.9988,-1.9988,0,-1.9219,-1.9284,-1.9319,-1.9401,-1.9422,-1.9432,-1.9501,-1.9519,-1.9567,-1.9597,-1.9608,-1.9681,-1.972,-1.9782,-1.9838,-1.9868,-1.9882,-1.9903,-1.9863,-1.987,-1.9853,-1.9852,-1.9791,-1.9786,-1.9876,-1.9875,-1.9874,0,-1.9185,-1.92,-1.9283,-1.9306,-1.9341,-1.9376,-1.9404,-1.9474,-1.95,-1.9566,-1.9575,-1.9619,-1.9657,-1.9715,-1.9771,-1.9814,-1.9835,-1.9811,-1.9841,-1.9822,-1.9832,-1.9829,-1.983,-1.9802,-1.9801,-1.98,-1.9799,0,-1.9117,-1.9149,-1.9189,-1.924,-1.9272,-1.9315,-1.9361,-1.9375,-1.9454,-1.948,-1.9521,-1.9551,-1.961,-1.9651,-1.9702,-1.9738,-1.978,-1.979,-1.9788,-1.9769,-1.9744,-1.9755,-1.9841,-1.979,-1.9791,-1.9791,-1.9792,-1.9792,-1.9057,-1.9072,-1.9134,-1.9176,-1.9218,-1.9259,-1.928,-1.9331,-1.9367,-1.9421,-1.946,-1.9498,-1.9552,-1.9626,-1.9659,-1.9688,-1.9707,-1.9706,-1.9705,-1.9703,-1.9696,-1.9742,-1.9698,-1.9698,-1.9699,-1.9699,-1.9699,0,-1.899,-1.9033,-1.9071,-1.9134,-1.9167,-1.9208,-1.926,-1.9284,-1.9317,-1.9366,-1.9403,-1.9449,-1.949,-1.9551,-1.9596,-1.9607,-1.9628,-1.9616,-1.9615,-1.9622,-1.9677,-1.9673,-1.9599,-1.9599,-1.9599,-1.9599,-1.9599,-1.9599,-1.8959,-1.8987,-1.9026,-1.9075,-1.9118,-1.9158,-1.9184,-1.9221,-1.9261,-1.931,-1.9345,-1.9386,-1.9438,-1.9488,-1.9526,-1.9543,-1.9555,-1.9537,-1.9559,-1.9609,-1.9618,-1.9627,-1.9623,-1.954,-1.954,-1.9501,-1.9501,-1.9501]}]]